Pascagoula, MS

8:44 PM CDT on March 28, 2017 (GMT -0500)
Lott International

Weather History for KPQL - September, 2012

Change the Weather History Date:

Thursday, September 13, 2012

  Actual Average Record
Temperature  
Mean Temperature 76 °F -  
Max Temperature 86 °F 88 °F 94 °F (1963)
Min Temperature 66 °F 70 °F 54 °F (2015)
Cooling Degree Days 11    
Growing Degree Days 26 (Base 50)    
Moisture  
Dew Point 69 °F    
Average Humidity 78    
Maximum Humidity 93    
Minimum Humidity 59    
Precipitation  
Precipitation 0.00 in - - ()
Sea Level Pressure  
Sea Level Pressure 30.14 in    
Wind  
Wind Speed 5 mph (East)    
Max Wind Speed 13 mph    
Max Gust Speed 17 mph    
Visibility 10 miles    
Events      
Averages and records for this station are not official NWS values.
T = Trace of Precipitation, MM = Missing Value Source: NWS Daily Summary

Daily Weather History Graph

Daily Weather History Graph

Search for Another Location

Airport or City:

Trip Planner

Search our weather history database for the weather conditions in past years. The results will help you decide how hot, cold, wet, or windy it might be!

Date:

Astronomy

Sep. 13, 2012 Rise Set
Actual Time 6:37 AM CDT 7:01 PM CDT
Civil Twilight 6:13 AM CDT 7:25 PM CDT
Nautical Twilight 5:45 AM CDT 7:53 PM CDT
Astronomical Twilight 5:16 AM CDT 8:22 PM CDT
Moon 4:05 AM CDT (9/13) 5:18 PM CDT (9/13)
Length of Visible Light 13h 11m
Length of Day
12h 23m
Waning Crescent, 7% of the Moon is Illuminated
Sep 13
Waning Crescent
Sep 15
New
Sep 22
First Quarter
Sep 29
Full
Oct 8
Last Quarter

Hourly Weather History & Observations

Time (CDT) Temp. Heat Index Dew Point Humidity Pressure Visibility Wind Dir Wind Speed Gust Speed Precip Events Conditions
12:53 AM 71.1 °F - 66.9 °F 87% 30.14 in 10.0 mi NE 3.5 mph - N/A   Clear
1:53 AM 70.0 °F - 64.9 °F 84% 30.13 in 10.0 mi NE 3.5 mph - N/A   Clear
2:53 AM 69.1 °F - 64.9 °F 87% 30.12 in 10.0 mi North 3.5 mph - N/A   Clear
3:53 AM 68.0 °F - 64.9 °F 90% 30.12 in 10.0 mi Calm Calm - N/A   Clear
4:53 AM 66.9 °F - 64.0 °F 90% 30.13 in 10.0 mi NNE 3.5 mph - N/A   Clear
5:53 AM 68.0 °F - 64.0 °F 87% 30.13 in 10.0 mi NE 4.6 mph - N/A   Clear
6:53 AM 68.0 °F - 64.9 °F 90% 30.15 in 10.0 mi Calm Calm - N/A   Clear
7:53 AM 72.0 °F - 66.9 °F 84% 30.16 in 10.0 mi ENE 5.8 mph - N/A   Clear
8:53 AM 78.1 °F - 70.0 °F 76% 30.16 in 10.0 mi East 9.2 mph - N/A   Clear
9:53 AM 82.0 °F 86.7 °F 72.0 °F 71% 30.17 in 10.0 mi East 10.4 mph - N/A   Partly Cloudy
10:53 AM 82.9 °F 87.5 °F 71.1 °F 67% 30.17 in 10.0 mi East 8.1 mph - N/A   Scattered Clouds
11:21 AM 82.4 °F 87.2 °F 71.6 °F 70% 30.17 in 10.0 mi SE 9.2 mph - N/A   Mostly Cloudy
11:53 AM 82.0 °F 86.3 °F 71.1 °F 69% 30.17 in 10.0 mi SE 11.5 mph 16.1 mph N/A   Mostly Cloudy
12:35 PM 84.2 °F 89.6 °F 71.6 °F 66% 30.15 in 10.0 mi East 10.4 mph - N/A   Mostly Cloudy
12:53 PM 82.9 °F 87.5 °F 71.1 °F 67% 30.16 in 10.0 mi ESE 11.5 mph - N/A   Mostly Cloudy
1:53 PM 84.0 °F 88.4 °F 70.0 °F 63% 30.13 in 10.0 mi SE 12.7 mph 17.3 mph N/A   Mostly Cloudy
2:53 PM 86.0 °F 90.7 °F 70.0 °F 59% 30.11 in 10.0 mi SE 10.4 mph - N/A   Partly Cloudy
3:53 PM 86.0 °F 91.5 °F 71.1 °F 61% 30.09 in 10.0 mi SSE 11.5 mph - N/A   Partly Cloudy
4:53 PM 84.0 °F 89.0 °F 71.1 °F 65% 30.09 in 10.0 mi SE 12.7 mph - N/A   Clear
5:53 PM 82.0 °F 85.5 °F 69.1 °F 65% 30.10 in 10.0 mi SE 9.2 mph - N/A   Clear
6:53 PM 78.1 °F - 69.1 °F 74% 30.10 in 10.0 mi SE 3.5 mph - N/A   Clear
7:53 PM 73.0 °F - 70.0 °F 90% 30.11 in 10.0 mi Calm Calm - N/A   Clear
8:53 PM 73.0 °F - 70.0 °F 90% 30.13 in 10.0 mi Calm Calm - N/A   Clear
9:53 PM 71.1 °F - 69.1 °F 93% 30.15 in 10.0 mi Calm Calm - N/A   Clear
10:53 PM 71.1 °F - 69.1 °F 93% 30.16 in 8.0 mi Calm Calm - N/A   Clear
11:53 PM 70.0 °F - 68.0 °F 93% 30.16 in 9.0 mi Calm Calm - N/A   Clear